Regional Weather Roundup
Issued by NWS Grand Forks, ND

Home | Current Version | Previous Version | Graphics & Text | Print | Product List | Glossary On
Versions: 1 2 3 4 5 6 7 8 9 10 11 12 13 14 15 16 17 18 19 20 21 22 23 24 25 26 27 28 29 30 31 32 33 34 35 36 37 38 39 40 41 42 43 44 45 46 47 48 49 50
000
ASUS43 KFGF 260731
RWRFGF
PRAIRIE TO PINES  WEATHER ROUNDUP
NATIONAL WEATHER SERVICE EASTERN NORTH DAKOTA/GRAND FORKS ND
200 AM CDT THU APR 26 2018

 **SATELLITE DATA USED TO AUGMENT SKY COVER AT AUTOMATED STATIONS**
 *****  WEATHER ACROSS EASTERN NORTH DAKOTA  *****

CITY           SKY/WX    TMP DP  RH WIND       PRES   REMARKS
GRAND FORKS    FAIR      45  33  63 N18       29.83R
GRAND FRKS AFB FAIR      46  31  56 N17       29.84R
GRAND FRKS NWS   N/A     46  33  60 N21       29.82R
DEVILS LAKE    FAIR      42  29  59 N12       29.92R
FARGO          FAIR      46  37  71 SW9       29.79R
WAHPETON ARPT  FAIR      43  34  70 S8        29.80S
$$

 ***** WEATHER ACROSS CENTRAL AND WESTERN NORTH DAKOTA  *****

CITY           SKY/WX    TMP DP  RH WIND       PRES   REMARKS
BISMARCK       FAIR      50  32  50 N17G26    29.96R
MINOT          FAIR      43  32  65 W12       30.00R
JAMESTOWN      FAIR      47  33  58 N25G36    29.84R
MINOT AFB      FAIR      35  31  82 NW9       29.99R
GARRISON         N/A     41  34  76 N10       30.00R
WILLISTON      FAIR      43  30  60 NE5       30.08R
DICKINSON      FAIR      44  32  62 N10       30.03R
HETTINGER      FAIR      44  32  62 N10       30.03R
$$

 *****  OTHER AIRPORT OBSERVATIONS IN OUR AREA  *****

CITY           SKY/WX    TMP DP  RH WIND       PRES   REMARKS
WALHALLA       FAIR      43  30  61 NW13      29.91R
GRAFTON AIRPOR FAIR      45  32  61 N16       29.89R
VALLEY CITY AR FAIR      46  34  61 NE18      29.85R
CANDO          FAIR      39  27  60 N9        29.96R
CAVALIER APRT    N/A     43  32  65 N12       29.89R
GWINNER          N/A     46  36  66 W12G17    29.79S
SHEYENNE NWR     N/A     48  34  59 SW9       29.95S
ROLLA          FAIR      37  27  65 NW10      29.96R
 ***** THE ABOVE OBSERVATIONS ARE NON NWS ARE NOT QUALITY
       CONTROLLED AND MAY MIS-REPORT RAIN FOR SNOW...
$$

  *****  WEATHER ACROSS NORTHERN MINNESOTA  *****

CITY           SKY/WX    TMP DP  RH WIND       PRES   REMARKS
FLAG ISLAND    FAIR      41  34  75 N10       29.79R
WARROAD        MOCLDY    48  37  66 N15G24    29.80R
ROSEAU         MOCLDY    46  37  71 N12       29.81R
HALLOCK        FAIR      46  27  46 N14G21    29.86R
THF RVR FALLS  FAIR      43  36  76 N9        29.81R
BAUDETTE       MOCLDY    42  32  67 SW6       29.75S
WASKISH        FAIR      41  30  65 CALM      29.76F
CROOKSTON      FAIR      46  36  66 N13G20    29.81R
STEPHEN NDAWN    N/A     46  30  53 N10         N/A
GREENBUSH NDAW   N/A     43  34  70 N7          N/A
$$
  *****  WEATHER ACROSS CENTRAL AND WEST MINNESOTA  *****

CITY           SKY/WX    TMP DP  RH WIND       PRES   REMARKS
FOSSTON        FAIR      39  30  70 S6        29.79R
BEMIDJI        FAIR      45  31  58 SW8       29.77F
PARK RAPIDS    FAIR      40  31  70 S7        29.80F
ELBOW LAKE     FAIR      41  35  76 S13       29.82F
WADENA         FAIR      39  32  75 S6        29.81F
DETROIT LAKES  FAIR      48  32  53 S9        29.79F
MOORHEAD       FAIR      45  36  70 W7        29.82R
FERGUS FALLS   FAIR      45  34  65 S10       29.79F
MORRIS MN      FAIR      43  36  75 SE9       29.83F
STAPLES        FAIR      37  30  75 S7        29.82F
$$
  *****  WEATHER ELSEWHERE ACROSS MINNESOTA  *****

CITY           SKY/WX    TMP DP  RH WIND       PRES   REMARKS
DULUTH         FAIR      44  25  47 SW10      29.85F
INTRNTL FALLS  MOCLDY    44  29  55 SW6       29.75F
ELY            FAIR      43  23  45 S6        29.81F
CLOQUET        FAIR      43  21  42 SW6       29.85F
WHEATON        FAIR      45  34  65 S10       29.82F
BRAINERD       FAIR      45  29  53 S9        29.84F
HIBBING        FAIR      35  22  58 S5        29.82F
ALEXANDRIA     FAIR      47  33  58 SW13      29.85F
SAINT CLOUD    FAIR      41  33  73 S7        29.88F
MINNEAPOLIS    CLOUDY    47  34  60 CALM      29.92F
$$

  *****  WEATHER ACROSS SOUTH DAKOTA  *****

CITY           SKY/WX    TMP DP  RH WIND       PRES   REMARKS
SIOUX FALLS    FAIR      48  31  51 SW9       29.91F
BROOKINGS      FAIR      44  33  65 S9        29.89F
WATERTOWN      FAIR      41  33  73 S9        29.85F
HURON          FAIR      48  34  58 S13       29.85F
SISSETON         N/A     53  32  44 SW28G37   29.76F
ABERDEEN       FAIR      39  34  82 SW7       29.82F
MITCHELL       FAIR      49  34  56 S12       29.88F
PIERRE         FAIR      46  32  58 W6        29.85R
MOBRIDGE       FAIR      52  35  52 N12       29.84R
RAPID CITY     FAIR      53  31  42 NW24G32   30.00R
$$

  *****  SOME WEATHER IN NEARBY STATES *****

CITY           SKY/WX    TMP DP  RH WIND       PRES   REMARKS
GLASGOW MT     FAIR      41  29  62 NW9       30.13R
GREAT FALLS MT FAIR      35  29  78 S9        30.23S
CHEYENNE WY    FAIR      47  22  37 N20G33    30.08R
SCOTTSBLUFF NE FAIR      56  28  34 N31G45    29.94S
OMAHA NE       FAIR      44  37  76 SE6       29.98F
DES MOINES IA  FAIR      47  31  53 CALM      29.98S
DAVENPORT IA   FAIR      41  33  73 SE10      29.99S
CHICAGO IL     FAIR      38  29  70 CALM      29.97F
EAU CLAIRE WI  FAIR      36  27  69 CALM      29.92F
LA CROSSE WI   FAIR      43  33  68 SE3       29.95S
$$

  *****  SOME NATIONAL WEATHER *****

CITY           SKY/WX    TMP DP  RH WIND       PRES   REMARKS
LA GUARDIA NY  CLOUDY    55  53  93 CALM      29.59S FOG
RALEIGH NC     FAIR      52  52 100 CALM      29.82S
ATLANTA GA     FAIR      52  50  93 W5        29.87F
NEW ORLEANS LA FAIR      67  65  93 SW7       29.90F
OKLAHOMA CITY  FAIR      44  40  85 N6        30.05F
ALBUQUERQUE NM FAIR      58  30  34 SW6       30.10R
SALT LAKE CITY FAIR      54  38  54 W3        30.13R
LOS ANGELES CA CLOUDY    57  52  83 W10       30.05S
BOISE ID       FAIR      53  34  48 SE5       30.11R
SEATTLE WA     FAIR      62  40  44 N12       30.06R
$$

*** WEATHER ACROSS MANITOBA...SASKATCHEWAN AND ONTARIO ***
                ***ONTARIO***

CITY           SKY/WX    TMP DP  RH WIND       PRES   REMARKS
GERALDTON      MOCLDY    36  25  64 SW8       29.75F
THUNDER BAY    PTCLDY    28  25  86 NW2       29.82F
SIOUX LOOKOUT  PTCLDY    41  30  65 W3        29.71F
TORONTO        MOCLDY    39  36  87 NW16      29.77F
BIG TROUT LK   CLOUDY    30  27  86 N13G18    29.80R WCI  20
PICKLE LAKE    NOT AVBL
DRYDEN         MOCLDY    45  32  61 W8        29.73R
KENORA         MOCLDY    45  36  70 N15G21    29.78R
$$
                *** MANITOBA***

CITY           SKY/WX    TMP DP  RH WIND       PRES   REMARKS
BRANDON        CLEAR     36  28  75 N12       29.98R
DAUPHIN        CLEAR     37  28  70 N5        30.03R
ISLAND LAKE    FLURRIES  27  21  80 N15       29.97R WCI  15
PILOT MOUND      N/A     41  25  52 N9          N/A
THE PAS        CLEAR     28  23  80 CALM      30.02S
THOMPSON       PTCLDY    25  18  74 NE6       30.03S WCI  18
WINNIPEG       CLEAR     45  28  53 N15       29.89R
LYNN LAKE      CLEAR     21  21 100 S3        30.00S
CHURCHILL      PTCLDY     9   5  85 N9        30.09F WCI  -5
GILLAM         FLURRIES  12   7  79 N9        30.07S WCI   0
$$
                ***SASKATCHEWAN***

CITY           SKY/WX    TMP DP  RH WIND       PRES   REMARKS
ESTEVAN        CLEAR     32  27  80 NW9       30.05R WCI  24
KINDERSLEY     CLEAR     36  27  69 SW9       30.11S
LLOYDMINSTER   CLEAR     41  27  56 SW12      30.03F
PRINCE ALBERT  PTCLDY    32  25  74 W2        30.05F
REGINA         CLEAR     30  23  74 W7        30.09R WCI  23
YORKTON        CLEAR     36  27  69 NW6       30.04R
N. BATTLEFORD  CLEAR     37  23  56 S3        30.07F
LA RONGE       MOCLDY    36  27  69 S7        29.96F
SASKATOON      CLEAR     34  27  75 SW9       30.08F
SWIFT CURRENT  CLEAR     36  27  69 SW9       30.12R
$$
NOTE: THESE ARE AUTOMATED STATIONS WITH LIMITED QUALITY CONTROL
      "FAIR" INDICATES FEW OR NO CLOUDS BELOW 12,000 FEET WITH NO
      SIGNIFICANT WEATHER AND/OR OBSTRUCTIONS TO VISIBILITY.
      SKY/WX - SKY CONDITION AND SIGNIFICANT WEATHER.
      TMP - AIR TEMPERATURE.    DP   - DEWPOINT TEMPERATURE.
      RH  - RELATIVE HUMIDITY.  PRES - PRESSURE.
      HX  - HEAT INDEX.         WCI  - WIND CHILL INDEX.
$




USA.gov is the U.S. government's official web portal to all federal, state and local government web resources and services.